Home   Weather   Kohtla-Järve   Past weeks

Flag for Estonia Past Weather in Kohtla-Järve, Estonia — Yesterday and Last 2 Weeks

Now
59 °F

Drizzle. Low clouds.


Feels Like: 59 °F
Forecast: 57 / 68 °F
Wind: 2 mph from North

Location: Johvi

Current Time: Jul 25, 2017 at 9:55:17 am

Latest Report: Jul 25, 2017 at 9:00 am


Visibility: 6 mi

Pressure: 29.83 "Hg

Humidity: 96%

Dew Point: 58 °F

Location of Kohtla-JärveLocation

Past Weather in Kohtla-Järve — Graph

°F

Kohtla-Järve Temperature Yesterday

Maximum temperature yesterday: 65 °F (at 12:00 pm)
Minimum temperature yesterday: 48 °F (at 5:00 am)
Average temperature yesterday: 58 °F

High & Low Weather Summary for the Past Weeks

 TemperatureHumidityPressure
High71 °F (Jul 13, 3:00 pm)99% (Jul 22, 3:00 am)30.11 "Hg (Jul 22, 3:00 am)
Low46 °F (Jul 22, 5:00 am)43% (Jul 10, 10:00 am)29.53 "Hg (Jul 12, 9:00 am)
Average59 °F79%29.89 "Hg
* Reported Jul 10 8:00 am — Jul 25 8:00 am, Kohtla-Järve. Weather by CustomWeather, © 2017

Note: Actual official high and low records may vary slightly from our data, if they occured in-between our weather recording intervals... More about our weather records

Advertising

Kohtla-Järve Weather History for the Previous 24 Hours

Scroll right to see more
 ConditionsComfort  
Time TempWeatherWind HumidityBarometerVisibility
8:00 am
Tue, Jul 25
59 °FOvercast.1 mph98%29.83 "Hg7 mi
7:00 am56 °FFog.1 mph98%29.83 "Hg3 mi
6:00 am53 °FFog.No wind97%29.84 "Hg2 mi
5:00 am54 °FCool.No wind98%29.85 "Hg1 mi
4:00 am53 °FDuststorm.1 mph98%29.85 "Hg1 mi
3:00 am52 °FLow clouds.1 mph97%29.86 "Hg0 mi
2:00 am52 °FCool.1 mph97%29.85 "Hg1 mi
1:00 am54 °FPassing clouds.1 mph96%29.85 "Hg2 mi
12:00 am53 °FPassing clouds.No wind95%29.87 "Hg0 mi
11:00 pm
Mon, Jul 24
54 °FPassing clouds.No wind94%29.88 "Hg6 mi
10:00 pm57 °FLow clouds.1 mph92%29.88 "Hg12 mi
9:00 pm57 °FPartly sunny.1 mph89%29.87 "Hg15 mi
8:00 pm59 °FOvercast.2 mph85%29.87 "Hg22 mi
7:00 pm60 °FOvercast.3 mph81%29.87 "Hg22 mi
6:00 pm60 °FOvercast.2 mph80%29.88 "Hg25 mi
5:00 pm60 °FOvercast.2 mph84%29.89 "Hg22 mi
4:00 pm59 °FOvercast.2 mph85%29.89 "Hg25 mi
3:00 pm60 °FRain showers. Overcast.2 mph86%29.89 "Hg6 mi
2:00 pm63 °FOvercast.5 mph75%29.89 "Hg22 mi
1:00 pm63 °FOvercast.5 mph74%29.88 "Hg25 mi
12:00 pm65 °FPassing clouds.5 mph66%29.88 "Hg22 mi
11:00 am64 °FScattered clouds.3 mph70%29.88 "Hg17 mi
10:00 am63 °FPassing clouds.3 mph70%29.88 "Hg22 mi
9:00 am64 °FSunny.3 mph70%29.89 "Hg22 mi
Weather by CustomWeather, © 2017

See weather overviewHow to use our weather pages